Starlink 31905

operational
NORAD ID: 59896 Int'l Des: 2024-100 Owner: SPXS Country: US Constellation: starlink
LEOCIRCULAR

Starlink 31905について

説明を読み込み中...

リアルタイム位置

3D地球を読み込み中...

次回通過

高度履歴

Altitude vs Time

uPlot chart will show altitude changes over time

軌道要素

1 59896U 24100M 25307.74226631 .00004599 00000-0 17651-3 0 9992
2 59896 43.0018 113.3251 0001407 287.6745 72.3953 15.27588280 81938
Epoch: Nov 3, 2025 • Age: 17 hours

現在のステータス

高度 495.5 km
速度 7.62 km/s
衛星直下点 -43.13°S, 172.79°E
打ち上げ日 May 28, 2024
運用期間 1.4 years
タイプ internet

技術仕様

分類 Payload
質量 730.00 kg
乾燥質量 700.00 kg
総質量 730.00 kg
長さ 0.30 m
直径 4.10 m
スパン 29.00 m
形状 Box + pan
製造者 SPXS
バスタイプ Starlink V2M
フェーズステータス In Orbit
所有者/国 SPXS/US

大規模コンステレーション

Loading constellations...